Zurück zum Katalog

JILIN-01 GAOFEN 3G

AktivWissenschaftPO
NORAD 46459·PAYLOAD·🇨🇳 China

Gestartet Sep 15, 2020 von Yellow Sea Launch Area

Loading…

Nächste Überflüge (nächste 24 Stunden)

TLE

AktuellSource: Space-Track

Epoche: Sep 14, 2026, 14:20 UTC

1 46459U 20065F   26257.59735536  .00599459  17507-3  88237-3 0  9991
2 46459  97.2116 318.9610 0003849 213.6999 146.4038 16.05055422334081

Verfolge JILIN-01 GAOFEN 3G in Echtzeit mit AllMySat

Download on the App Store